Location: Alladorf
(49.9620°N, 11.3790°E)
Time: 21:24:04
(UTC+00:00)

SJ 16-02 - Pass Details

Date: 29 November 2020
Orbit: 606 x 616 km, 75.0° (Epoch: 25 January)

Event Time Altitude Azimuth Distance (km) Brightness Sun altitude
Exits shadow 04:46:09 43° 278° (W) 869 1.6 -19.0°
Maximum altitude 04:46:38 45° 298° (WNW) 844 1.6 -18.9°
Drops below altitude 10° 04:50:55 10° 12° (NNE) 1,990 4.0 -18.2°
Sets 04:53:16 0° 19° (NNE) 2,900 4.9 -17.8°
